Marc Fuchs

Скаут - VfL Wolfsburg
3 Дек 2028
Воскресенье
Продолжить

Характер

Адаптивность (15) Амбиции (14) Скандальность (14) Верность (9) Стрессоустойчивость (15) Профессионализм (13) Благородство (1) Темперамент (20)

Профиль

Стиль управления Демократичный
Лицензия Континентальная Pro
Решительность 13
Управление людьми 8
Мотивация 7
Дисциплина 13
Удовлетворённость
100%
Усталость
0%
Должность Скаут
Зарплата 98.1K в нед.
Контракт 14.03.2029

Производительность

Поведение Хорошее
Эффективность тренировок
58%
Развитие игроков
70%
Профилактика травм
30%
Тактическая реализация
70%

Недавние события

Участвовал в селекционном совещании только что
Рекомендовал трансферную цель только что
Оценил игрока только что
Оценил игрока 7 дн. назад
Оценил игрока 7 дн. назад
Посетил матч 7 дн. назад
Оценил игрока 7 дн. назад
Оценил игрока 7 дн. назад

Текущее наблюдение

113
Игрок Клуб Статус Способность Уверенность Наблюдений Последнее наблюдение Последний голос
Álvaro Montoro Botafogo Активный 135 / 138 40% 7 01.12.2028 -
Estêvão Portsmouth Активный 157 / 154 40% 2 01.12.2028 -
Harry Gray Harrogate Town Активный 131 / 138 40% 1 01.12.2028 -
Luis Otávio Orlando City Активный 107 / 126 40% 3 28.11.2028 -
Babis Kostoulas Oxford United Активный 146 / 155 40% 2 28.11.2028 -
Honest Ahanor Atalanta Активный 146 / 144 40% 13 26.11.2028 -
Matías Arias Vélez Активный 115 / 122 40% 4 26.11.2028 -
Ayyoub Bouaddi Stoke City Активный 152 / 157 40% 2 26.11.2028 -
Lucca São Paulo Активный 119 / 122 40% 3 24.11.2028 -
Sebastian Rodriguez Houston Dynamo Активный 114 / 124 40% 2 24.11.2028 -
Mikey Moore Stockport County Активный 147 / 146 40% 1 24.11.2028 -
Olivier Mambwa Young Boys Активный 112 / 122 40% 8 23.11.2028 -
Lisandro Piñero Banfield Активный 126 / 124 40% 3 22.11.2028 -
Rio Ngumoha Plymouth Argyle Активный 146 / 148 40% 2 22.11.2028 -
Jacob Peter Hödl Sturm Graz Активный 123 / 126 40% 1 22.11.2028 -
Aarón Ochoa Málaga Активный 126 / 133 40% 2 19.11.2028 -
Santiago Segovia Rosario Central Активный 109 / 121 40% 1 19.11.2028 -
Franco Mastantuono Córdoba Активный 151 / 152 40% 1 18.11.2028 -
Mihajlo Cvetković Club Brugge Активный 130 / 134 40% 1 18.11.2028 -
Lennart Karl TSG Hoffenheim Активный 138 / 154 40% 1 15.11.2028 -
Celías Ingenthron Platense Активный 112 / 130 40% 3 13.11.2028 -
Valentino Huertas Morón Активный 102 / 109 40% 1 13.11.2028 -
Ethan Nwaneri Arsenal Активный 159 / 160 40% 1 12.11.2028 -
Geovany Quenda Watford Активный 149 / 156 40% 1 09.11.2028 -
Joris Boguo Wolfsberger AC Активный 104 / 110 40% 1 07.11.2028 -
Ibrahim Mbaye Queens Park Rangers Активный 147 / 144 40% 3 06.11.2028 -
Tahiel Peralta Racing Club Активный 108 / 116 40% 1 06.11.2028 -
Johannes Moser Sturm Graz Активный 107 / 119 40% 1 06.11.2028 -
Peyton Miller New England Revolution Активный 107 / 119 40% 1 06.10.2028 -
Ryunosuke Sato Eibar Активный 133 / 138 40% 1 04.10.2028 -
Matias Siltanen Malmo FF Активный 131 / 133 40% 3 02.10.2028 -
Ramazan Bağdat Kairat Активный 106 / 112 40% 1 02.10.2028 -
Facundo Krüger Temperley Активный 117 / 113 40% 1 28.08.2028 -
Endrick Boca Juniors Активный 164 / 162 40% 1 28.08.2028 -
Thomas Schlupp BA All Stars Активный 114 / 109 40% 1 28.08.2028 -
Mathias Honsak Heidenheim Упущен 135 / 134 76% 1 21.08.2028 За
Adam Hložek TSG Hoffenheim Упущен 146 / 145 76% 1 14.08.2028 За
Trey Nyoni Rotherham United Активный 142 / 151 40% 6 08.08.2028 -
Shea Lacey Crystal Palace Активный 143 / 141 40% 2 08.08.2028 -
Ryan McAidoo Oldham Athletic Активный 133 / 132 40% 2 08.08.2028 -
Arnaud Kalimuendo Nottingham Forest Активный 150 / 153 40% 1 05.07.2028 -
Brandon Thomas-Asante Blackpool Активный 125 / 128 40% 1 05.07.2028 -
Iliman N'Diaye Everton Активный 161 / 162 40% 2 04.07.2028 -
Ez Abde Betis Активный 157 / 156 40% 1 04.07.2028 -
William Osula Wrexham Активный 143 / 136 40% 1 03.07.2028 -
Christopher Nkunku AC Milan Активный 168 / 162 40% 1 03.07.2028 -
Isaac Romero Sevilla Упущен 149 / 142 40% 1 26.06.2028 -
Yousef Salech Cardiff City Упущен 138 / 131 40% 1 26.06.2028 -
Rayan Hamburger SV Активный 140 / 153 40% 1 18.06.2028 -
Saïd El Mala Köln Активный 148 / 153 76% 1 03.06.2028 За
Tyler Fletcher Rotherham United Активный 113 / 116 40% 3 31.05.2028 -
Kerim Alajbegović Modena Активный 138 / 137 40% 1 31.05.2028 -
Ben Broggio Mansfield Town Активный 114 / 120 40% 1 31.05.2028 -
Daniel Banjaqui Benfica Активный 119 / 126 40% 11 29.05.2028 -
Jorge Salinas Racing Santander Активный 136 / 139 40% 8 29.05.2028 -
Christos Mouzakitis Hull City Активный 132 / 141 40% 3 28.05.2028 -
Giovanni Leoni Lincoln City Активный 142 / 141 40% 7 27.05.2028 -
Héctor Fort Real Sociedad Активный 147 / 142 40% 4 25.05.2028 -
Jan Bürger Northampton Town Активный 125 / 128 40% 2 25.05.2028 -
Josh Nichols Oldham Athletic Активный 123 / 122 40% 7 23.05.2028 -
Givairo Read Feyenoord Активный 152 / 156 40% 6 22.05.2028 -
Martim Cunha Porto Активный 109 / 110 40% 6 22.05.2028 -
Marc Bernal Sevilla Активный 151 / 156 40% 6 20.05.2028 -
Riquelme Thompson-Jones Accrington Stanley Активный 107 / 115 40% 5 20.05.2028 -
Andrija Bulatović Chamois Niortais Активный 129 / 132 40% 4 19.05.2028 -
Pau Cubarsí Real Sociedad Активный 161 / 167 40% 11 18.05.2028 -
Bernardo Lima Porto Активный 109 / 115 40% 4 18.05.2028 -
Ayden Heaven Portsmouth Активный 147 / 150 40% 7 18.05.2028 -
Jorthy Mokio ADO Den Haag Активный 130 / 137 40% 6 06.05.2028 -
Josh Acheampong Everton Активный 137 / 145 40% 3 06.04.2028 -
Izan Merino Málaga Активный 125 / 131 40% 2 05.04.2028 -
Prosper Peter Olympique Lyonnais Активный 111 / 123 40% 1 29.06.2027 -
Finn Azaz Southampton Активный 130 / 132 40% 1 18.05.2027 -
Georges Mikautadze Villarreal Активный 152 / 151 40% 1 18.05.2027 -
Joe Gelhardt Hull City Активный 138 / 137 40% 1 18.05.2027 -
Manu Koné AS Roma Активный 167 / 164 40% 2 15.05.2027 -
Chemsdine Talbi Sunderland Активный 147 / 141 40% 2 13.05.2027 -
Roberto Fernández Braga Активный 150 / 142 40% 6 11.05.2027 -
Kevin Fulham Активный 146 / 150 40% 2 09.05.2027 -
Aimar Osasuna Активный 148 / 148 40% 1 09.05.2027 -
Pablo Torre Mallorca Активный 140 / 146 40% 1 08.05.2027 -
Jonathan Dubasin Osasuna Активный 138 / 141 40% 1 08.05.2027 -
David Larrubia Málaga Активный 139 / 133 40% 1 02.05.2027 -
Savinho Tottenham Активный 153 / 152 40% 1 01.05.2027 -
Omar El Hilali Espanyol Активный 145 / 154 40% 1 01.05.2027 -
Andrés Martín Racing Santander Упущен 144 / 132 40% 4 27.04.2027 -
Francisco Conceição Köln Активный 151 / 156 40% 3 12.04.2027 -
Yeremy Pino Crystal Palace Активный 156 / 151 40% 3 11.04.2027 -
Osame Sahraoui LOSC Lille Активный 141 / 142 40% 1 06.04.2027 -
Pau Víctor Braga Активный 135 / 140 40% 1 04.04.2027 -
Takefusa Kubo VfB Stuttgart Активный 158 / 160 40% 2 31.03.2027 -
Geny Sporting CP Активный 148 / 148 40% 2 31.03.2027 -
Mikel Jauregizar Athletic Bilbao Активный 159 / 159 40% 3 21.03.2027 -
Alfon Sevilla Активный 145 / 136 40% 1 10.03.2027 -
Petter Nosa Dahl Rapid Wien Активный 124 / 120 40% 2 25.12.2026 -
Carlos Álvarez Club America Активный 146 / 146 40% 1 25.12.2026 -
Oihan Sancet Athletic Bilbao Активный 153 / 157 40% 3 20.12.2026 -
Christantus Uche Getafe Активный 132 / 138 40% 1 20.12.2026 -
Sota Kitano Red Bull Salzburg Активный 130 / 118 40% 2 16.12.2026 -
Yorbe Vertessen Red Bull Salzburg Активный 127 / 127 40% 2 15.12.2026 -
Metinho Basel Активный 126 / 127 40% 2 10.12.2026 -
João Pedro Chelsea Активный 146 / 154 40% 1 10.12.2026 -
Moisés Caicedo Chelsea Активный 161 / 165 40% 2 07.12.2026 -
Carlos Forbs Club Brugge Активный 142 / 137 40% 1 27.11.2026 -
Oswin Appollis Orlando Pirates Активный 125 / 120 40% 1 20.11.2026 -
Mattia Zanotti Young Boys Активный 121 / 128 40% 1 09.11.2026 -
Matthias Seidl Rapid Wien Активный 122 / 123 40% 1 31.10.2026 -
Amadou Onana Aston Villa Активный 148 / 149 40% 1 26.10.2026 -
Michael Olise Bayern Munich Активный 181 / 180 40% 1 23.10.2026 -
Maurits Kjærgaard Red Bull Salzburg Активный 121 / 131 40% 1 20.10.2026 -
Felix Nmecha Borussia Dortmund Активный 152 / 166 40% 1 04.08.2026 -
Frenkie de Jong Barcelona Активный 156 / 167 40% 1 01.08.2026 -
Cody Gakpo Liverpool Активный 153 / 161 40% 1 01.08.2026 -